sat.trackr.live / text

‹ back to catalog

ONEWEB-0509

NORAD 54127 · 2022-138Q

PAYLOAD ACTIVE UNKNOWN

§ Identity

Operator
Country
UK
Launch date
2022-10-22
Launch site
SRILR
Launch vehicle
Mass (kg)
RCS (m²)

Purposes: comms

External: N2YO · Heavens-Above · Gunter

§ Orbital elements

Epoch: 2026-05-25T04:41:11.419584Z

Period
109.11 min
Inclination
87.9161°
Eccentricity
0.0001705
Mean motion
13.19726105 rev/d
Perigee alt
1,184.5 km
Apogee alt
1,187.1 km
Semi-major
7,563.9 km
B*
1.3757e-4
RAAN
309.5464°
Arg perigee
90.5483°
Mean anomaly
269.5846°
Rev number
17,377

§ Raw data

ONEWEB-05091 54127U 22138Q   26145.19527106  .00000068  00000+0  13757-3 0  99932 54127  87.9161 309.5464 0001705  90.5483 269.5846 13.19726105173776

JSON: /api/v1/satellites/54127 · /tle

For live sub-satellite position, see the globe view (requires WebGL).

§ Visibility from observer

Set your observer location to see the next 7 days of passes ≥ 10°. The values pass through the URL so the page stays shareable.

No JS? Fill the form by hand. The geolocation button needs JavaScript.